Location: ????????
(38.4362°N, 22.8767°E)
Time: 13:58:36
(UTC+00:00)

CZ-4 R/B - Pass Details

Date: 23 April 2024
Orbit: 677 x 749 km, 98.6° (Epoch: 18 May)

Event Time Altitude Azimuth Distance (km) Brightness Sun altitude
Rises 01:50:43 0° 11° (N) 3,069 7.8 -20.2°
Reaches altitude 10° 01:52:59 10° 9° (N) 2,141 6.9 -19.8°
Maximum altitude 01:57:38 74° 286° (WNW) 712 3.7 -19.1°
Enters shadow 01:59:33 35° 208° (SSW) 1,093 4.3 -18.8°
